TimeCST,TemperatureF,Dew PointF,Humidity,Sea Level PressureIn,VisibilityMPH,Wind Direction,Wind SpeedMPH,Gust SpeedMPH,PrecipitationIn,Events,Conditions,WindDirDegrees,DateUTC
12:15 AM,30.2,30.2,100,29.63,1.5,North,13.8,21.9,N/A,Snow,Light Snow,360,2013-02-27 06:15:00
12:35 AM,30.2,30.2,100,29.63,1.5,North,13.8,19.6,N/A,Snow,Light Snow,360,2013-02-27 06:35:00
12:55 AM,30.2,30.2,100,29.63,1.5,North,16.1,20.7,N/A,Snow,Light Snow,360,2013-02-27 06:55:00
1:15 AM,30.2,28.4,93,29.63,1.2,North,16.1,23.0,N/A,Snow,Light Snow,360,2013-02-27 07:15:00
1:35 AM,30.2,28.4,93,29.63,1.2,North,18.4,24.2,N/A,Snow,Light Snow,360,2013-02-27 07:35:00
1:55 AM,28.4,28.4,100,29.63,1.0,North,18.4,24.2,N/A,Snow,Light Snow,360,2013-02-27 07:55:00
2:15 AM,28.4,28.4,100,29.62,2.5,North,18.4,26.5,N/A,Snow,Light Snow,360,2013-02-27 08:15:00
2:35 AM,28.4,28.4,100,29.61,3.0,North,19.6,25.3,N/A,Snow,Light Snow,360,2013-02-27 08:35:00
2:55 AM,28.4,28.4,100,29.61,2.5,North,20.7,26.5,N/A,Snow,Light Snow,360,2013-02-27 08:55:00
3:15 AM,28.4,26.6,93,29.61,2.0,North,19.6,28.8,N/A,Snow,Light Snow,360,2013-02-27 09:15:00
3:35 AM,28.4,26.6,93,29.61,2.5,North,20.7,28.8,N/A,Snow,Light Snow,360,2013-02-27 09:35:00
3:55 AM,28.4,26.6,93,29.61,1.8,North,20.7,25.3,N/A,Snow,Light Snow,360,2013-02-27 09:55:00
4:15 AM,28.4,26.6,93,29.61,3.0,North,20.7,28.8,N/A,Snow,Light Snow,360,2013-02-27 10:15:00
4:35 AM,28.4,26.6,93,29.61,4.0,North,20.7,25.3,N/A,Snow,Light Snow,360,2013-02-27 10:35:00
4:55 AM,28.4,26.6,93,29.61,2.0,North,19.6,29.9,N/A,Snow,Light Snow,360,2013-02-27 10:55:00
5:15 AM,28.4,26.6,93,29.61,3.0,North,17.3,28.8,N/A,Snow,Light Snow,350,2013-02-27 11:15:00
5:35 AM,28.4,26.6,93,29.61,2.5,North,17.3,26.5,N/A,Snow,Light Snow,360,2013-02-27 11:35:00
5:55 AM,28.4,26.6,93,29.61,1.5,North,18.4,24.2,N/A,Snow,Light Snow,360,2013-02-27 11:55:00
6:15 AM,28.4,26.6,93,29.61,1.5,North,20.7,25.3,N/A,Snow,Light Snow,360,2013-02-27 12:15:00
6:55 AM,28.4,26.6,93,29.61,2.5,North,17.3,26.5,N/A,Snow,Light Snow,360,2013-02-27 12:55:00
7:15 AM,28.4,26.6,93,29.62,1.8,North,18.4,25.3,N/A,Snow,Light Snow,360,2013-02-27 13:15:00
7:35 AM,28.4,26.6,93,29.63,7.0,North,20.7,26.5,N/A,Snow,Light Snow,360,2013-02-27 13:35:00
7:55 AM,30.2,26.6,86,29.63,5.0,North,18.4,23.0,N/A,Snow,Light Snow,360,2013-02-27 13:55:00
8:15 AM,30.2,28.4,93,29.63,3.0,North,16.1,23.0,N/A,,Overcast,360,2013-02-27 14:15:00
8:35 AM,30.2,28.4,93,29.64,1.5,North,16.1,21.9,N/A,Snow,Light Snow,360,2013-02-27 14:35:00
9:15 AM,30.2,28.4,93,29.63,2.5,North,15.0,20.7,N/A,Snow,Light Snow,360,2013-02-27 15:15:00
9:35 AM,30.2,28.4,93,29.63,2.0,North,16.1,23.0,N/A,Snow,Light Snow,360,2013-02-27 15:35:00
9:55 AM,30.2,28.4,93,29.63,1.8,North,18.4,24.2,N/A,Snow,Light Snow,360,2013-02-27 15:55:00
10:15 AM,30.2,28.4,93,29.63,2.5,North,16.1,23.0,N/A,Snow,Light Snow,10,2013-02-27 16:15:00
10:55 AM,30.2,28.4,93,29.63,3.0,North,18.4,25.3,N/A,,Overcast,360,2013-02-27 16:55:00
11:15 AM,32.0,28.4,87,29.63,1.5,North,15.0,27.6,N/A,Snow,Light Snow,360,2013-02-27 17:15:00
11:35 AM,32.0,28.4,87,29.63,3.0,North,16.1,25.3,N/A,,Overcast,360,2013-02-27 17:35:00
11:55 AM,32.0,28.4,87,29.63,5.0,North,16.1,23.0,N/A,,Overcast,360,2013-02-27 17:55:00
12:15 PM,32.0,28.4,87,29.63,3.0,North,17.3,23.0,N/A,,Overcast,360,2013-02-27 18:15:00
12:35 PM,32.0,28.4,87,29.63,5.0,North,19.6,26.5,N/A,,Overcast,360,2013-02-27 18:35:00
12:55 PM,32.0,28.4,87,29.63,1.5,North,17.3,24.2,N/A,Snow,Light Snow,360,2013-02-27 18:55:00
1:15 PM,32.0,30.2,93,29.63,1.2,North,18.4,-,N/A,Snow,Light Snow,350,2013-02-27 19:15:00
1:35 PM,32.0,28.4,87,29.63,2.5,North,19.6,25.3,N/A,,Overcast,350,2013-02-27 19:35:00
1:55 PM,32.0,28.4,87,29.64,1.0,North,17.3,24.2,N/A,Snow,Light Snow,360,2013-02-27 19:55:00
2:15 PM,32.0,30.2,93,29.64,1.5,North,17.3,-,N/A,Snow,Light Snow,350,2013-02-27 20:15:00
2:35 PM,32.0,28.4,87,29.64,2.5,North,16.1,24.2,N/A,Snow,Light Snow,350,2013-02-27 20:35:00
2:55 PM,32.0,28.4,87,29.65,3.0,North,16.1,21.9,N/A,Snow,Light Snow,360,2013-02-27 20:55:00
3:15 PM,32.0,28.4,87,29.66,10.0,North,17.3,23.0,N/A,,Overcast,360,2013-02-27 21:15:00
3:35 PM,32.0,28.4,87,29.67,7.0,North,19.6,25.3,N/A,,Overcast,360,2013-02-27 21:35:00
3:55 PM,32.0,28.4,87,29.67,4.0,North,17.3,23.0,N/A,Snow,Light Snow,360,2013-02-27 21:55:00
4:15 PM,32.0,28.4,87,29.67,2.5,North,18.4,25.3,N/A,Snow,Light Snow,360,2013-02-27 22:15:00
4:35 PM,32.0,28.4,87,29.68,5.0,North,16.1,24.2,N/A,Snow,Light Snow,360,2013-02-27 22:35:00
4:55 PM,32.0,28.4,87,29.69,5.0,North,15.0,21.9,N/A,Snow,Light Snow,350,2013-02-27 22:55:00
5:15 PM,32.0,28.4,87,29.70,4.0,North,13.8,20.7,N/A,Snow,Light Snow,350,2013-02-27 23:15:00
5:35 PM,32.0,28.4,87,29.70,10.0,North,13.8,20.7,N/A,,Overcast,360,2013-02-27 23:35:00
5:55 PM,32.0,28.4,87,29.71,10.0,North,15.0,19.6,N/A,,Overcast,350,2013-02-27 23:55:00
6:15 PM,32.0,28.4,87,29.72,10.0,NNW,11.5,-,N/A,Snow,Light Snow,340,2013-02-28 00:15:00
6:35 PM,32.0,30.2,93,29.72,1.8,NNW,13.8,-,N/A,Snow,Light Snow,340,2013-02-28 00:35:00
6:55 PM,32.0,30.2,93,29.72,2.5,NNW,13.8,-,N/A,Snow,Light Snow,340,2013-02-28 00:55:00
7:15 PM,32.0,30.2,93,29.73,7.0,NNW,15.0,23.0,N/A,,Overcast,340,2013-02-28 01:15:00
7:35 PM,32.0,30.2,93,29.73,5.0,NNW,16.1,20.7,N/A,Snow,Light Snow,340,2013-02-28 01:35:00
7:55 PM,32.0,30.2,93,29.73,7.0,NNW,13.8,-,N/A,,Overcast,340,2013-02-28 01:55:00
8:15 PM,32.0,30.2,93,29.74,10.0,NNW,13.8,20.7,N/A,,Overcast,330,2013-02-28 02:15:00
8:35 PM,32.0,30.2,93,29.75,10.0,NNW,13.8,-,N/A,,Overcast,340,2013-02-28 02:35:00
8:55 PM,32.0,30.2,93,29.75,10.0,NNW,12.7,17.3,N/A,,Overcast,340,2013-02-28 02:55:00
9:15 PM,32.0,30.2,93,29.75,10.0,NNW,13.8,17.3,N/A,,Overcast,340,2013-02-28 03:15:00
9:35 PM,32.0,30.2,93,29.75,10.0,NNW,12.7,20.7,N/A,,Overcast,340,2013-02-28 03:35:00
9:55 PM,32.0,30.2,93,29.75,10.0,NNW,13.8,-,N/A,,Overcast,340,2013-02-28 03:55:00
10:15 PM,32.0,30.2,93,29.75,10.0,NNW,13.8,21.9,N/A,,Overcast,340,2013-02-28 04:15:00
10:35 PM,32.0,30.2,93,29.76,10.0,NNW,12.7,18.4,N/A,,Overcast,340,2013-02-28 04:35:00
10:55 PM,32.0,30.2,93,29.76,10.0,NNW,13.8,17.3,N/A,,Overcast,340,2013-02-28 04:55:00
11:15 PM,32.0,30.2,93,29.76,10.0,NNW,13.8,-,N/A,,Overcast,340,2013-02-28 05:15:00
11:55 PM,32.0,30.2,93,29.77,7.0,NNW,13.8,-,N/A,,Overcast,340,2013-02-28 05:55:00